Wind_Speed
31 32 31 30 28 28 28 27 26 26 26 28 25 24 24 19 23 21 18 18 18 17 17 15 14 14 15 16 17 17 17 16 16 16 16 17 17 17 17 18 19 20 21
32 33 32 30 30 29 30 28 28 28 30 32 29 29 23 17 18 22 22 22 18 19 18 18 16 15 15 16 17 17 18 17 17 17 16 17 17 17 17 17 18 19 20
35 28 27 26 30 30 34 33 34 33 32 32 35 32 25 23 22 20 21 25 17 20 20 20 18 15 15 16 17 17 17 16 17 17 17 17 18 19 19 20 20 20 21
31 30 34 30 31 34 34 35 36 37 36 33 35 35 30 24 23 23 24 22 19 22 24 21 19 17 18 18 17 17 17 16 17 18 19 18 18 20 20 21 21 22 22
33 38 42 32 35 35 37 36 36 34 33 29 29 31 29 26 26 25 24 22 20 23 25 22 19 18 19 19 17 16 17 18 18 18 18 18 18 18 19 19 19 19 20
28 35 31 33 30 33 34 35 30 31 29 30 30 27 27 28 27 26 25 24 24 28 26 22 19 17 17 17 18 17 17 17 18 18 18 18 18 18 18 18 17 17 16
31 33 36 40 37 37 31 30 30 32 33 33 29 30 34 30 29 27 25 28 28 27 25 20 18 18 17 17 17 16 17 17 17 17 17 18 19 18 18 17 16 16 15
37 34 32 35 36 38 31 37 36 33 35 31 31 31 32 32 30 30 30 24 27 25 22 19 20 17 17 17 18 17 17 17 18 18 18 18 18 17 15 15 15 15 15
36 36 34 35 32 41 40 38 33 33 32 30 30 31 35 36 33 32 33 29 27 25 20 21 20 17 17 18 17 17 18 17 16 17 17 18 16 17 16 15 15 15 16
42 37 40 33 47 44 44 39 41 32 29 28 30 36 35 35 31 31 30 30 28 25 22 24 19 18 18 18 17 18 18 18 17 17 17 17 17 17 17 16 15 15 15
48 43 42 45 40 39 44 46 40 33 29 29 33 37 37 36 34 31 29 31 27 27 23 24 21 17 18 19 19 18 17 17 17 18 18 18 17 17 17 15 14 13 15
44 48 50 45 40 46 39 47 41 37 32 32 34 40 39 36 31 31 31 30 28 26 23 26 20 18 18 20 18 18 18 17 18 18 18 18 18 18 18 16 14 14 15
44 49 48 50 48 47 45 45 41 39 37 36 36 42 39 38 34 34 33 33 29 26 25 24 22 19 17 20 18 19 17 17 17 16 17 17 17 17 16 16 14 14 14
42 40 41 50 49 48 48 49 47 42 40 38 40 44 42 41 37 37 37 35 30 27 25 24 22 20 19 19 18 18 17 17 16 16 17 18 18 18 18 17 16 15 15
47 46 45 45 52 50 46 50 50 47 45 43 44 46 44 44 43 41 37 35 28 25 24 23 22 19 19 19 17 17 17 16 16 15 17 17 18 18 18 18 17 16 16
60 58 49 46 46 48 48 54 55 51 49 49 48 47 47 47 47 45 37 32 27 22 23 23 21 18 20 17 17 18 16 16 15 16 16 16 18 19 18 18 18 18 18
47 52 57 51 49 47 53 52 59 54 57 51 51 50 49 49 49 42 35 29 28 27 24 23 22 21 19 16 17 17 15 15 16 16 16 17 18 19 19 19 20 19 20
47 47 49 49 48 55 49 52 62 60 64 56 52 51 50 46 44 41 37 32 36 26 21 20 19 20 18 18 17 17 14 15 16 16 18 18 18 18 19 21 20 20 21
40 45 48 44 48 48 49 50 53 59 60 52 50 48 48 44 44 44 38 37 24 22 19 21 22 20 18 17 18 15 14 14 16 17 19 18 17 17 20 21 21 21 21
33 36 42 42 44 45 51 47 51 56 55 49 45 49 46 42 41 41 38 27 26 23 20 23 22 20 19 18 19 15 14 16 17 18 18 18 17 16 19 21 22 22 21
37 39 38 39 43 40 45 43 49 54 56 52 51 46 44 42 41 37 29 26 22 20 21 23 21 20 20 18 17 18 16 17 16 17 16 18 17 16 17 19 22 22 22
34 35 37 40 44 38 34 38 45 48 48 52 44 47 44 37 36 27 27 22 19 21 22 20 20 21 20 18 17 17 18 19 18 18 19 16 17 15 17 19 21 22 22
38 40 41 42 45 47 37 40 40 44 49 41 39 41 46 43 33 31 28 25 26 26 25 23 21 21 20 19 18 18 18 18 18 20 21 19 17 16 18 19 21 23 24
25 28 33 39 33 35 40 38 41 46 43 43 41 34 35 39 32 28 26 26 27 27 26 24 23 24 22 20 18 19 19 17 17 19 20 20 19 18 19 20 21 22 23
22 22 22 24 30 34 37 42 44 40 36 37 36 42 39 32 30 29 27 25 26 25 24 25 25 23 22 20 20 20 18 18 17 17 20 22 20 20 20 21 21 22 23
16 16 27 31 31 33 36 36 37 38 37 41 45 39 37 33 29 28 26 25 24 22 23 25 23 22 20 21 19 20 21 17 16 18 21 21 20 21 22 21 22 23 24
Wind_Direction
242 244 243 238 234 235 234 246 244 252 254 259 252 253 258 274 275 268 259 249 258 262 270 275 284 295 301 307 310 311 311 309 306 302 298 296 293 288 285 281 279 276 275
245 237 239 239 235 237 238 245 247 250 255 260 254 255 271 271 257 258 249 245 253 260 270 274 282 293 299 306 308 308 306 306 301 297 295 294 294 292 289 285 282 279 277
241 246 239 241 236 232 235 240 242 247 252 255 259 258 259 258 265 240 238 239 251 264 273 277 283 288 296 304 305 302 297 297 296 294 295 295 294 292 290 287 284 281 278
237 245 246 246 237 231 234 238 243 247 251 250 256 254 254 255 246 232 234 241 248 260 268 274 281 288 299 302 302 299 299 297 295 296 296 294 293 289 287 284 282 280 279
229 230 232 241 241 230 236 240 242 250 260 253 260 259 252 243 237 238 229 241 250 252 261 267 276 292 294 296 294 292 295 296 296 295 297 299 299 299 295 292 289 287 285
240 248 241 241 236 235 236 237 247 253 250 258 257 258 249 242 231 231 239 235 245 253 260 267 277 282 287 290 291 294 294 295 294 297 302 303 304 304 301 299 296 295 295
244 237 233 236 242 235 235 245 245 238 257 254 253 243 237 231 229 234 231 247 241 248 260 268 274 284 288 287 290 293 294 296 299 303 305 306 306 306 302 300 301 303 302
246 247 239 234 229 240 238 236 246 244 256 250 250 239 229 227 230 230 246 236 233 243 256 267 276 281 282 285 286 288 292 296 299 302 305 307 306 302 299 297 297 300 299
253 250 242 242 242 234 245 242 245 254 254 256 247 234 228 225 226 232 245 241 244 247 252 261 269 271 272 279 283 285 288 289 292 296 301 303 303 301 298 296 299 300 300
249 252 254 243 248 241 236 238 245 249 249 246 239 230 226 231 233 240 237 232 237 249 255 265 262 263 274 272 274 277 284 287 291 296 299 302 302 301 302 302 302 304 303
243 253 253 249 240 246 243 243 249 247 252 241 233 234 232 231 232 237 234 234 234 241 253 260 261 263 263 264 270 279 281 284 290 294 298 299 301 300 297 296 295 298 298
245 251 253 254 251 243 252 242 250 248 246 241 229 233 233 234 239 243 237 231 228 237 248 257 255 254 255 264 269 273 275 280 284 290 296 302 304 303 300 296 296 297 298
247 243 251 257 255 247 248 246 247 245 242 238 230 234 232 233 232 239 234 232 233 238 243 246 253 250 246 254 261 266 268 273 280 288 294 299 299 298 294 291 291 293 294
261 254 252 246 255 254 251 247 243 244 242 236 229 232 232 229 237 237 238 238 236 243 245 245 249 251 246 246 253 257 262 270 283 290 298 300 301 298 294 288 288 289 291
270 258 252 247 248 252 258 252 242 240 240 234 229 229 230 230 235 236 236 238 239 245 248 250 252 246 245 246 250 255 263 274 281 291 292 295 298 300 296 293 292 291 291
266 264 255 243 249 242 248 250 242 235 235 234 228 226 226 229 236 234 232 232 234 241 244 250 250 237 238 238 241 251 262 272 281 285 290 297 300 300 300 298 294 290 289
249 256 257 246 239 249 248 252 248 233 231 228 229 225 223 226 232 237 230 221 227 232 238 240 240 239 239 233 232 249 261 270 275 282 292 297 298 300 301 297 294 291 288
240 239 250 250 246 240 251 254 256 236 240 227 225 223 222 223 227 230 226 228 229 231 236 241 237 237 236 236 237 245 254 264 273 286 292 293 296 298 298 294 292 292 288
249 233 238 247 247 244 255 251 253 246 237 221 220 222 224 219 222 223 228 230 216 228 229 232 230 232 236 239 245 246 254 266 278 285 288 291 295 298 294 292 294 292 290
248 238 232 242 249 247 251 255 251 236 226 220 216 222 221 216 219 223 228 206 224 224 222 227 232 233 238 236 247 251 252 261 271 278 284 291 294 294 293 299 296 293 291
243 239 241 238 256 259 256 251 243 234 227 219 211 214 217 211 215 226 207 217 222 230 227 225 231 233 236 241 251 257 265 270 274 281 287 284 292 296 295 294 295 296 294
241 236 235 236 239 254 255 250 242 235 228 212 202 208 213 203 225 198 211 213 218 225 230 231 233 234 239 242 246 261 269 271 280 285 284 288 293 298 295 295 295 295 294
235 235 231 235 241 248 246 239 229 223 216 206 205 204 216 219 191 205 207 207 214 218 218 221 231 236 241 245 250 256 263 273 282 287 290 294 295 300 297 299 302 301 298
229 222 234 232 227 229 237 226 218 217 203 199 207 208 212 198 197 205 209 213 218 221 225 229 228 228 235 245 248 253 261 271 273 278 285 289 295 298 297 298 297 295 295
222 225 225 232 234 228 230 217 210 199 186 200 210 223 189 196 199 206 215 217 222 224 225 226 227 229 235 244 251 261 265 264 271 276 283 286 291 295 295 297 298 298 300
205 222 226 227 225 223 212 212 203 196 202 208 192 180 189 194 201 209 214 221 224 225 228 230 233 236 240 248 254 258 258 259 269 275 277 284 293 297 298 300 299 300 301
Height
3122 3124 3128 3130 3133 3134 3137 3140 3144 3146 3142 3142 3145 3148 3150 3151 3152 3154 3155 3156 3158 3158 3159 3159 3158 3158 3157 3157 3156 3155 3154 3153 3152 3152 3151 3150 3150 3150 3150 3149 3149 3150 3150
3116 3117 3121 3124 3127 3130 3132 3134 3139 3141 3138 3136 3140 3143 3145 3147 3149 3150 3151 3152 3153 3154 3154 3154 3154 3154 3154 3154 3153 3152 3150 3150 3149 3149 3148 3147 3147 3146 3145 3145 3145 3145 3145
3109 3110 3114 3117 3121 3125 3125 3127 3130 3134 3135 3132 3132 3137 3141 3142 3143 3145 3147 3149 3150 3151 3150 3150 3150 3150 3150 3150 3149 3149 3147 3147 3146 3145 3144 3143 3143 3142 3141 3140 3139 3139 3139
3101 3104 3107 3110 3112 3118 3120 3121 3124 3126 3127 3127 3128 3131 3134 3137 3138 3139 3142 3144 3145 3146 3147 3147 3147 3146 3146 3146 3145 3145 3144 3143 3143 3142 3141 3140 3139 3138 3137 3136 3135 3134 3133
3093 3098 3100 3103 3105 3109 3113 3114 3117 3119 3122 3121 3120 3123 3128 3130 3132 3134 3138 3140 3141 3141 3142 3144 3143 3142 3142 3142 3142 3142 3141 3140 3139 3139 3137 3136 3135 3134 3133 3132 3130 3129 3128
3084 3090 3093 3096 3099 3103 3105 3106 3110 3113 3117 3117 3115 3115 3119 3124 3128 3130 3134 3134 3134 3137 3140 3140 3138 3138 3139 3138 3139 3138 3137 3136 3135 3134 3133 3131 3130 3129 3128 3127 3125 3125 3124
3078 3082 3087 3089 3091 3094 3097 3100 3102 3105 3107 3111 3110 3109 3111 3117 3120 3123 3127 3130 3130 3133 3136 3136 3133 3133 3134 3135 3134 3134 3134 3133 3132 3130 3129 3128 3127 3126 3124 3122 3122 3121 3120
3070 3074 3078 3081 3086 3086 3088 3091 3093 3097 3100 3102 3103 3104 3105 3110 3114 3117 3118 3122 3126 3127 3130 3130 3128 3130 3130 3131 3130 3129 3129 3129 3128 3127 3125 3125 3123 3122 3121 3119 3118 3118 3117
3064 3067 3070 3074 3077 3080 3081 3084 3084 3088 3092 3096 3097 3098 3098 3101 3106 3110 3113 3115 3120 3122 3126 3126 3125 3125 3126 3125 3126 3126 3125 3124 3123 3123 3122 3121 3120 3118 3117 3116 3115 3114 3113
3057 3059 3062 3065 3069 3073 3073 3075 3077 3080 3084 3087 3091 3091 3093 3098 3100 3104 3107 3109 3114 3115 3119 3118 3123 3122 3121 3120 3121 3121 3120 3120 3120 3119 3118 3118 3117 3115 3113 3112 3111 3111 3109
3047 3051 3053 3058 3060 3062 3065 3067 3067 3070 3074 3079 3084 3085 3087 3090 3094 3097 3100 3103 3108 3109 3111 3110 3114 3117 3117 3117 3117 3117 3117 3117 3116 3116 3115 3114 3113 3111 3109 3108 3107 3107 3105
3037 3039 3043 3047 3052 3054 3054 3060 3061 3063 3068 3071 3075 3077 3081 3084 3089 3092 3095 3098 3101 3102 3104 3103 3108 3111 3111 3111 3112 3112 3113 3113 3113 3113 3112 3110 3110 3108 3107 3106 3105 3105 3103
3025 3028 3032 3035 3042 3045 3047 3051 3053 3055 3060 3063 3067 3068 3075 3079 3084 3085 3087 3091 3094 3095 3097 3097 3102 3106 3106 3106 3107 3108 3108 3109 3110 3109 3107 3106 3105 3104 3103 3101 3101 3100 3099
3015 3019 3021 3024 3027 3035 3038 3040 3044 3047 3052 3055 3059 3061 3067 3071 3073 3078 3081 3085 3086 3088 3090 3092 3096 3100 3101 3102 3103 3103 3104 3104 3104 3104 3103 3102 3101 3100 3099 3098 3097 3096 3094
2997 3005 3009 3013 3015 3021 3025 3029 3033 3036 3041 3046 3051 3055 3061 3062 3063 3068 3072 3078 3080 3082 3085 3087 3090 3094 3095 3096 3098 3098 3099 3100 3100 3099 3099 3099 3097 3096 3095 3094 3093 3091 3091
2985 2986 2992 2999 3005 3008 3012 3015 3020 3025 3031 3036 3041 3045 3050 3055 3054 3056 3064 3071 3074 3076 3079 3083 3085 3089 3089 3092 3093 3092 3094 3094 3095 3095 3095 3093 3092 3091 3090 3088 3088 3087 3085
2971 2974 2976 2984 2991 2995 2998 3004 3004 3009 3015 3022 3030 3034 3039 3045 3047 3052 3056 3061 3065 3070 3072 3077 3080 3081 3083 3086 3088 3088 3090 3090 3090 3090 3088 3087 3087 3086 3085 3084 3083 3082 3081
2959 2962 2965 2970 2978 2982 2987 2990 2994 2995 3001 3006 3018 3025 3029 3036 3041 3043 3049 3053 3055 3062 3068 3073 3074 3075 3078 3078 3081 3084 3085 3085 3086 3085 3084 3083 3082 3081 3079 3078 3077 3077 3077
2946 2947 2953 2957 2963 2969 2974 2979 2984 2987 2992 2998 3008 3016 3025 3027 3035 3037 3042 3046 3050 3055 3061 3068 3070 3070 3071 3073 3075 3079 3080 3081 3081 3080 3080 3079 3078 3076 3074 3073 3072 3071 3071
2934 2937 2941 2948 2952 2957 2963 2967 2972 2977 2983 2990 2996 3010 3020 3021 3030 3031 3036 3040 3045 3049 3056 3061 3064 3065 3065 3067 3069 3073 3076 3076 3076 3076 3075 3073 3073 3073 3069 3066 3068 3066 3065
2924 2926 2926 2935 2940 2948 2952 2956 2962 2967 2974 2984 2990 3000 3009 3015 3021 3027 3030 3035 3039 3043 3051 3054 3058 3060 3061 3062 3064 3065 3067 3070 3071 3071 3069 3068 3068 3067 3064 3063 3062 3060 3059
2912 2917 2921 2925 2931 2935 2941 2946 2952 2958 2965 2974 2982 2992 2996 3006 3015 3022 3025 3030 3036 3040 3045 3048 3052 3055 3057 3059 3061 3061 3062 3063 3064 3063 3064 3063 3064 3062 3060 3057 3056 3055 3054
2901 2906 2911 2917 2922 2928 2932 2937 2944 2951 2957 2964 2973 2984 2994 3003 3007 3016 3019 3024 3030 3035 3040 3044 3047 3051 3052 3053 3055 3056 3057 3058 3057 3057 3058 3057 3057 3056 3054 3052 3049 3049 3048
2890 2895 2901 2905 2913 2918 2924 2931 2936 2944 2950 2962 2971 2976 2988 2997 3003 3011 3015 3018 3026 3031 3035 3039 3042 3045 3047 3048 3050 3050 3050 3053 3054 3053 3053 3052 3050 3051 3048 3048 3045 3044 3042
2881 2888 2893 2898 2906 2913 2918 2925 2930 2937 2949 2958 2967 2976 2986 2992 2998 3006 3011 3014 3021 3027 3031 3034 3037 3039 3041 3043 3044 3043 3046 3048 3049 3049 3048 3047 3046 3044 3043 3042 3040 3038 3036
2878 2884 2891 2897 2903 2910 2915 2922 2928 2937 2944 2954 2964 2971 2979 2987 2993 3000 3005 3010 3016 3021 3025 3029 3032 3034 3036 3038 3039 3040 3041 3043 3044 3043 3042 3041 3040 3037 3036 3035 3033 3031 3029